Simultaneous Nadir Overpasses (SNOs) Predictions

Prediction of SNOs between LANDSAT-8 and METOP-B Satellite Orbit:

Table of predicted SNOs for the next 14.0 days since TLE Epoch: 5/25/2018
Index Date (LANDSAT-8) Time (LANDSAT-8) Lat,Lon (LANDSAT-8) SZA (LANDSAT-8 ) Date (METOP-B) Time (METOP-B) Lat,Lon (METOP-B) SZA (METOP-B ) Distance(km) Time Diff (sec)
1 05/28/2018 05:45:11 81.15, 133.22 61.88 05/28/2018 05:43:57 81.15, 133.41 61.87 3.29 74
2 05/28/2018 06:34:37 -81.17, -58.85 118.09 05/28/2018 06:34:37 -81.17, -58.76 118.08 1.59 0
3 05/28/2018 07:24:03 81.18, 108.87 61.93 05/28/2018 07:25:16 81.18, 109.03 61.98 2.91 73
4 05/31/2018 01:19:24 81.15,-160.42 61.43 05/31/2018 01:18:18 81.14,-160.43 61.40 0.32 66
5 05/31/2018 02:08:50 -81.17, 7.54 118.53 05/31/2018 02:08:58 -81.16, 7.42 118.54 2.16 8
6 06/02/2018 20:53:37 81.14, -94.08 61.03 06/02/2018 20:52:38 81.15, -93.93 61.02 2.82 59
7 06/02/2018 21:43:03 -81.16, 73.90 118.93 06/02/2018 21:43:18 -81.16, 73.93 118.92 0.54 15
8 06/05/2018 16:27:48 81.16, -27.40 60.73 06/05/2018 16:26:57 81.15, -27.46 60.69 1.20 51
9 06/05/2018 17:17:14 -81.18, 140.61 119.23 06/05/2018 17:17:36 -81.18, 140.78 119.20 2.92 22
10 06/08/2018 12:02:01 81.15, 38.89 60.42 06/08/2018 12:01:17 81.15, 38.97 60.41 1.45 44




NCC Satellite Simultaneous Nadir Overpasses (SNOs) Prediction Service
